This demonstration page uses our WeatherBlox Daily Observations layout. Learn more.

Left ArrowRight Arrow

38.89511, -77.03637

Hourly Observations for March 26, 2021

Temp ( °F °C ) Dew Point ( °F °C ) Humidity (%) Winds ( mph kmh ) Pressure ( in mb ) Visibility ( mi km ) Precip ( " mm )
12:52 am 00:52 Cloudy 62 16.7 59 15 90 90 S 9 15 29.9 1013 10 16.0934 0 0
1:52 am 01:52 Cloudy 64 17.8 60 15.6 87 87 S 15 24 29.84 1011 10 16.0934 0 0
2:52 am 02:52 Cloudy 66 18.9 61 16.1 84 84 SSW 12 19 29.82 1010 10 16.0934 0 0
3:52 am 03:52 Cloudy 66 18.9 61 16.1 84 84 SSW 12 19 29.81 1010 10 16.0934 0.001 0.001
4:52 am 04:52 Mostly Cloudy 64 17.8 59 15 84 84 S 12 19 29.79 1009 10 16.0934 0 0
5:19 am 05:19 Cloudy 63 17.2 60 15.6 90 90 S 13 20 29.78 1008 10 16.0934 0 0
5:42 am 05:42 Cloudy 64 17.8 60 15.6 87 87 S 10 17 29.77 1008 10 16.0934 0 0
5:52 am 05:52 Cloudy 64 17.8 60 15.6 87 87 S 10 17 29.77 1008 10 16.0934 0 0
6:06 am 06:06 Cloudy 65 18.3 61 16.1 87 87 SSW 12 19 29.77 1008 10 16.0934 0 0
6:52 am 06:52 Mostly Cloudy 67 19.4 62 16.7 84 84 SSW 13 20 29.78 1009 10 16.0934 0 0
7:52 am 07:52 Cloudy 68 20 63 17.2 84 84 S 12 19 29.79 1009 10 16.0934 0 0
8:52 am 08:52 Mostly Cloudy 71 21.7 64 17.8 79 79 SSW 20 31 29.78 1008 10 16.0934 0 0
9:05 am 09:05 Mostly Cloudy 72 22.2 64 17.8 76 76 SSW 22 35 29.78 1008 10 16.0934 0 0
9:52 am 09:52 Partly Cloudy 74 23.3 64 17.8 71 71 SSW 18 30 29.76 1008 10 16.0934 0 0
10:52 am 10:52 Mostly Sunny 78 25.6 61 16.1 56 56 SW 22 35 29.77 1008 10 16.0934 0 0
11:52 am 11:52 Partly Cloudy 79 26.1 54 12.2 42 42 WSW 25 41 29.78 1009 10 16.0934 0 0
12:52 pm 12:52 Mostly Sunny 82 27.8 45 7.2 27 27 WSW 23 37 29.78 1009 10 16.0934 0 0
1:52 pm 13:52 Mostly Sunny 83 28.3 41 5 23 23 W 25 41 29.79 1009 10 16.0934 0 0
2:52 pm 14:52 Mostly Sunny 83 28.3 40 4.4 22 22 WNW 16 26 29.8 1009 10 16.0934 0 0
3:01 pm 15:01 Sunny 84 28.9 40 4.4 21 21 W 26 43 29.8 1009 10 16.0934 0 0
3:52 pm 15:52 Partly Cloudy 82 27.8 40 4.4 22 22 WNW 21 33 29.82 1010 10 16.0934 0 0
4:52 pm 16:52 Partly Cloudy 79 26.1 43 6.1 28 28 WNW 25 41 29.86 1011 10 16.0934 0 0
5:52 pm 17:52 Mostly Sunny 76 24.4 43 6.1 31 31 WNW 13 20 29.9 1013 10 16.0934 0 0
6:52 pm 18:52 Mostly Sunny 73 22.8 43 6.1 34 34 NNW 17 28 29.94 1014 10 16.0934 0 0
7:52 pm 19:52 Mostly Clear 70 21.1 42 5.6 37 37 NW 18 30 29.97 1015 10 16.0934 0 0
8:52 pm 20:52 Clear 67 19.4 42 5.6 41 41 NNW 15 24 30.01 1016 10 16.0934 0 0
9:52 pm 21:52 Clear 64 17.8 43 6.1 46 46 NNW 15 24 30.05 1018 10 16.0934 0 0
10:52 pm 22:52 Clear 61 16.1 43 6.1 52 52 NNW 13 20 30.06 1018 10 16.0934 0 0
11:52 pm 23:52 Clear 60 15.6 42 5.6 52 52 NNW 10 17 30.08 1019 10 16.0934 0 0

Powered by AerisWeather